Location: Azul
(36.7830°S, 59.8500°W)
Time: 08:55:45
(UTC-03:00)

METEOR M2 - Visible Passes

Search period start: 22 October 2021 00:00
Search period end: 01 November 2021 00:00
Orbit: 819 x 826 km, 98.5° (Epoch: 22 October)

Date Brightness Start Highest point End Pass type
(mag) Time Alt. Az. Time Alt. Az. Time Alt. Az.
22 Oct ? 20:17:13 10° SSE 20:22:38 68° ENE 20:27:59 10° N visible
22 Oct ? 21:59:16 10° SSW 22:02:10 15° WSW 22:05:02 10° W visible
23 Oct ? 19:57:30 10° SSE 20:02:40 44° E 20:07:46 10° N visible
23 Oct ? 21:38:25 10° SSW 21:42:30 22° WSW 21:46:32 10° WNW visible
24 Oct ? 21:17:59 10° S 21:22:45 33° WSW 21:27:31 10° NW visible
25 Oct ? 20:57:45 10° S 21:02:58 50° WSW 21:08:08 10° NW visible
26 Oct ? 20:37:41 10° S 20:43:07 77° WSW 20:48:29 10° NNW visible
27 Oct ? 20:17:47 10° SSE 20:23:13 70° ENE 20:28:34 10° N visible
27 Oct ? 21:59:56 10° SSW 22:02:43 14° WSW 22:05:30 10° W visible
28 Oct ? 19:58:05 10° SSE 20:03:15 45° E 20:08:23 10° N visible
28 Oct ? 21:39:02 10° SSW 21:43:03 22° WSW 21:47:03 10° WNW visible
29 Oct ? 21:18:34 10° S 21:23:19 32° WSW 21:28:03 10° NW visible
30 Oct ? 20:58:20 10° S 21:03:32 49° WSW 21:08:42 10° NW visible
31 Oct ? 20:38:17 10° S 20:43:42 75° WSW 20:49:03 10° NNW visible
